THOR ABLESTAR DEB, 1522

Orbit data source: Space-Track

THOR ABLESTAR DEB, 1522 is space debris in LEO originally from a launch on Fri, 13 Aug 1965 UTC launched from the Air Force Western Test Range (AFWTR). Debris objects in space refer to the collection of defunct objects orbiting the Earth. Examples of debris include non-operational satellites, rocket bodies, and fragments generated from explosions, collisions, or faulty payload assembly.

Loading next visibility...
Identifier
1522, 1965-065L
Orbit
LEO
Country
Flag of USUS
Related business
Manufacturer
Unknown
Mission
Spacecraft
Bus & Motor
Unknown
Mass
Unknown
Launch date (UTC)
1965-08-13 (60 years ago)
Launch vehicle
Unknown
Launch site
Air Force Western Test Range (AFWTR)
Object type
Payload
Rocket body
Debris
Shape & HBR
Unknown
Radar Cross Section
Medium (>0.1 m² and <1 m²)

Expand to show TLE details & history
Last TLE update: 21 hours ago

TLE from 21 hours ago
0 THOR ABLESTAR DEB
1 01522U 65065L   25259.59370252  .00000050  00000-0  82977-4 0  9990
2 01522  90.0823 124.4846 0069446 296.9152 125.4870 13.33827899923325
Epoch: 2025-09-16T14:14Z
TLE epoch observation values (Epoch: 2025-09-16T14:14:55.897Z)
Latitude
63.13083°
Longitude
-85.19169°
Altitude
1,173.814 km
Speed
7.257 km/s
True Right ascension
08h 17m 17s
True Declination
62° 59' 59"
Sunlit
Object was in daylight at epoch
Visualization orbit readout
Latitude
Unknown
Longitude
Unknown
Altitude
Unknown
Speed
Unknown
Apparent Right ascension
Unknown
Apparent Declination
Unknown
Sunlit
N/A
Visualization observer readout
Local Sidereal Time
03:35:13
Azimuth
Unknown
Elevation
Unknown
Doppler factor
Unknown
Orbital elements
Apogee altitude
1,181.57 km
Perigee altitude
1,077.296 km
Semi-major axis
7,507.57 km
Eccentricity
0.00694
Inclination
90.0823°
RAAN
124.4846°
Arg. of periapsis
296.9152°
True anomaly
126.13171°
Mean anomaly
125.487°
Eccentric anomaly
125.80968°
Mean motion
3.33652 °/min
Orbital period
107.9 mins
BSTAR
0.000082977
Loading maneuver chart data...
Computing Atmospheric mass density...
Loading historical data...
Loading historical data...
Loading historical data...
Loading historical data...
Loading historical data...
Loading historical data...
Loading historical data...

Documentation

Showing up to 5 results
|